Location: Greenwich
(51.4790°N, 0.0090°E)
Time: 23:43:18
(UTC+01:00)

A-11 Canister half - All Passes

Search period start: 16 April 2024 00:00
Search period end: 26 April 2024 00:00
Orbit: 1526 x 1682 km, 47.3° (Epoch: 16 April)

Date Brightness Start Highest point End Pass type
(mag) Time Alt. Az. Time Alt. Az. Time Alt. Az.
16 Apr - 07:02:11 10° SSW 07:10:28 31° SE 07:18:50 10° E daylight
16 Apr - 09:04:24 10° SW 09:14:15 60° SSE 09:24:07 10° E daylight
16 Apr - 11:08:49 10° W 11:18:55 71° S 11:28:53 10° ESE daylight
16 Apr - 13:13:45 10° W 13:23:22 50° SSW 13:32:48 10° SE daylight
16 Apr - 15:19:44 10° W 15:26:38 21° SW 15:33:27 10° S daylight
17 Apr - 06:40:39 10° S 06:48:47 29° SE 06:57:00 10° E daylight
17 Apr - 08:42:41 10° SW 08:52:30 59° SSE 09:02:21 10° E daylight
17 Apr - 10:47:03 10° W 10:57:09 71° S 11:07:09 10° ESE daylight
17 Apr - 12:51:57 10° W 13:01:39 52° SSW 13:11:08 10° SE daylight
17 Apr - 14:57:49 10° W 15:04:59 23° SW 15:12:02 10° S daylight
18 Apr - 06:19:07 10° S 06:27:06 28° SE 06:35:09 10° E daylight
18 Apr - 08:20:59 10° SW 08:30:45 57° SSE 08:40:35 10° E daylight
18 Apr - 10:25:17 10° W 10:35:22 71° S 10:45:24 10° E daylight
18 Apr - 12:30:11 10° W 12:39:54 53° SSW 12:49:27 10° SE daylight
18 Apr - 14:35:56 10° W 14:43:19 24° SW 14:50:36 10° S daylight
19 Apr - 05:57:37 10° S 06:05:25 27° SE 06:13:18 10° E daylight
19 Apr - 07:59:16 10° SW 08:09:00 56° SSE 08:18:48 10° E daylight
19 Apr - 10:03:31 10° W 10:13:36 71° S 10:23:38 10° E daylight
19 Apr - 12:08:24 10° W 12:18:10 54° SSW 12:27:46 10° SE daylight
19 Apr - 14:14:02 10° W 14:21:38 25° SW 14:29:08 10° S daylight
20 Apr - 05:36:07 10° S 05:43:44 26° SE 05:51:25 10° E daylight
20 Apr - 07:37:34 10° SW 07:47:15 55° SSE 07:57:02 10° E daylight
20 Apr - 09:41:45 10° W 09:51:50 71° S 10:01:53 10° E daylight
20 Apr - 11:46:37 10° W 11:56:25 56° SSW 12:06:05 10° SE daylight
20 Apr - 13:52:10 10° W 13:59:58 26° SW 14:07:39 10° S daylight
21 Apr - 05:14:40 10° S 05:22:04 24° SE 05:29:33 10° E visible
21 Apr - 07:15:54 10° SW 07:25:31 53° SSE 07:35:15 10° E daylight
21 Apr - 09:19:59 10° W 09:30:03 71° S 09:40:07 10° E daylight
21 Apr - 11:24:50 10° W 11:34:40 57° SSW 11:44:23 10° SE daylight
21 Apr - 13:30:18 10° W 13:38:17 28° SW 13:46:10 10° S daylight
22 Apr - 04:53:12 10° S 05:00:23 23° SE 05:07:40 10° E visible
22 Apr - 06:54:12 10° SW 07:03:46 52° SSE 07:13:27 10° E daylight
22 Apr - 08:58:14 10° WSW 09:08:17 71° S 09:18:21 10° E daylight
22 Apr - 11:03:03 10° W 11:12:55 58° SSW 11:22:41 10° SE daylight
22 Apr - 13:08:27 10° W 13:16:36 29° SW 13:24:39 10° S daylight
23 Apr - 04:31:46 10° S 04:38:43 22° SE 04:45:45 10° E visible
23 Apr - 06:32:32 10° SW 06:42:02 51° SSE 06:51:40 10° E daylight
23 Apr - 08:36:29 10° WSW 08:46:30 71° S 08:56:35 10° E daylight
23 Apr - 10:41:17 10° W 10:51:10 59° SSW 11:00:59 10° SE daylight
23 Apr - 12:46:36 10° W 12:54:54 30° SW 13:03:07 10° SSE daylight
24 Apr - 04:10:22 10° S 04:17:03 21° SE 04:23:49 10° E visible
24 Apr - 06:10:52 10° SW 06:20:17 49° SSE 06:29:53 10° E daylight
24 Apr - 08:14:43 10° WSW 08:24:44 70° S 08:34:49 10° E daylight
24 Apr - 10:19:30 10° W 10:29:24 60° SSW 10:39:15 10° ESE daylight
24 Apr - 12:24:46 10° W 12:33:12 31° SW 12:41:34 10° SSE daylight
25 Apr - 03:48:59 10° S 03:55:24 20° SE 04:01:53 10° E visible
25 Apr - 05:49:12 10° SW 05:58:34 48° SSE 06:08:05 10° E daylight
25 Apr - 07:52:58 10° WSW 08:02:58 70° S 08:13:02 10° E daylight
25 Apr - 09:57:43 10° W 10:07:38 62° SSW 10:17:32 10° ESE daylight
25 Apr - 12:02:56 10° W 12:11:31 33° SW 12:20:01 10° SSE daylight
